Powrót do katalogu

COSMOS 1579 COOLANT

AktywnyLEO
NORAD 26521·DEBRIS·🇷🇺 Russia

Wystrzelony Jun 29, 1984 z Baikonur Cosmodrome

Loading…

Następne Przeloty (najbliższe 24 godziny)

TLE

Starzejące sięSource: Space-Track

Epoka: Sep 11, 2026, 22:19 UTC

1 26521U 84069N   26254.93014437  .00000045  00000-0  10473-3 0  9990
2 26521  65.0491   5.9328 0053579 319.7672  39.9432 13.92013726660066

Śledź COSMOS 1579 COOLANT w czasie rzeczywistym z AllMySat

Download on the App Store